QTR349 OTHH-OLBA

Flight info

Callsign QTR349
Flight time N/A
Altitude 35000
Route TULUB2E TULUB B457 NARMI DCT KFA H741 JBL DCT FIRAS R655 KTN/N0471F260 R655 LEBOR LEBOR1R
Aircraft B77W/H-VGDW/C

Departure

Time 2026-05-04 12:29
Airport Hamad International Airport (OTHH)

Arrival

Time N/A
Airport Beirut Rafic Hariri International Airport (OLBA)
Time Latitude Longitude Altitude Speed Heading
2026-05-04 11:58 25.26595 51.61261 31 ft 0 kts 245°
2026-05-04 12:07 25.26596 51.61264 31 ft 3 kts 245°
2026-05-04 12:07 25.26604 51.61283 30 ft 3 kts 245°
2026-05-04 12:07 25.26612 51.61302 31 ft 3 kts 247°
2026-05-04 12:07 25.26616 51.61324 30 ft 3 kts 283°
2026-05-04 12:08 25.26610 51.61345 29 ft 3 kts 290°
2026-05-04 12:08 25.26603 51.61365 29 ft 3 kts 306°
2026-05-04 12:08 25.26595 51.61376 30 ft 0 kts 329°
2026-05-04 12:15 25.26603 51.61371 31 ft 2 kts 329°
2026-05-04 12:16 25.26615 51.61363 31 ft 3 kts 330°
2026-05-04 12:16 25.26633 51.61352 31 ft 3 kts 331°
2026-05-04 12:16 25.26657 51.61339 31 ft 4 kts 337°
2026-05-04 12:16 25.26682 51.61334 31 ft 4 kts 350°
2026-05-04 12:17 25.26709 51.61331 31 ft 4 kts 360°
2026-05-04 12:17 25.26739 51.61337 31 ft 5 kts 13°
2026-05-04 12:17 25.26774 51.61347 31 ft 5 kts 17°
2026-05-04 12:17 25.26807 51.61361 31 ft 5 kts 22°
2026-05-04 12:18 25.26844 51.61378 31 ft 6 kts 23°
2026-05-04 12:18 25.26886 51.61398 31 ft 7 kts 23°
2026-05-04 12:18 25.26937 51.61423 31 ft 9 kts 23°
2026-05-04 12:18 25.26991 51.61461 31 ft 10 kts 47°
2026-05-04 12:19 25.27029 51.61528 31 ft 11 kts 63°
2026-05-04 12:19 25.27061 51.61608 31 ft 12 kts 68°
2026-05-04 12:19 25.27091 51.61698 31 ft 13 kts 70°
2026-05-04 12:19 25.27154 51.61751 31 ft 12 kts
2026-05-04 12:20 25.27238 51.61731 31 ft 13 kts 340°
2026-05-04 12:20 25.27322 51.61693 31 ft 13 kts 335°
2026-05-04 12:20 25.27405 51.61652 31 ft 14 kts 336°
2026-05-04 12:20 25.27499 51.61608 31 ft 16 kts 336°
2026-05-04 12:21 25.27603 51.61558 31 ft 17 kts 337°
2026-05-04 12:21 25.27716 51.61510 31 ft 18 kts 339°
2026-05-04 12:21 25.27840 51.61458 30 ft 20 kts 339°
2026-05-04 12:21 25.27972 51.61402 31 ft 21 kts 339°
2026-05-04 12:22 25.28109 51.61343 31 ft 22 kts 339°
2026-05-04 12:22 25.28253 51.61283 32 ft 22 kts 339°
2026-05-04 12:22 25.28399 51.61220 32 ft 23 kts 338°
2026-05-04 12:22 25.28552 51.61151 32 ft 24 kts 338°
2026-05-04 12:23 25.28713 51.61082 32 ft 25 kts 339°
2026-05-04 12:23 25.28882 51.61009 31 ft 27 kts 338°
2026-05-04 12:23 25.29056 51.60931 31 ft 27 kts 335°
2026-05-04 12:23 25.29237 51.60850 31 ft 28 kts 338°
2026-05-04 12:24 25.29423 51.60766 31 ft 29 kts 338°
2026-05-04 12:24 25.29516 51.60749 31 ft 0 kts 25°
2026-05-04 12:26 25.29517 51.60750 31 ft 1 kts 26°
2026-05-04 12:26 25.29526 51.60756 31 ft 2 kts 35°
2026-05-04 12:26 25.29541 51.60772 31 ft 4 kts 47°
2026-05-04 12:27 25.29557 51.60805 31 ft 6 kts 66°
2026-05-04 12:27 25.29567 51.60865 30 ft 9 kts 92°
2026-05-04 12:27 25.29530 51.60926 30 ft 11 kts 144°
2026-05-04 12:27 25.29494 51.60947 30 ft 0 kts 154°
2026-05-04 12:28 25.29467 51.60960 30 ft 24 kts 156°
2026-05-04 12:28 25.29064 51.61137 30 ft 99 kts 159°
2026-05-04 12:29 25.28214 51.61506 32 ft 163 kts 158°
2026-05-04 12:29 25.26976 51.62056 47 ft 218 kts 158°
2026-05-04 12:29 25.25480 51.62712 409 ft 245 kts 156°
2026-05-04 12:29 25.23941 51.63435 1456 ft 227 kts 156°
2026-05-04 12:30 25.22424 51.64198 1787 ft 262 kts 154°
2026-05-04 12:30 25.20650 51.65166 9125 ft 304 kts 154°
2026-05-04 12:30 25.18715 51.66249 9075 ft 327 kts 154°
2026-05-04 12:30 25.16637 51.67409 9101 ft 341 kts 154°
2026-05-04 12:31 25.14484 51.68608 9099 ft 352 kts 154°
2026-05-04 12:31 25.12265 51.69843 9089 ft 360 kts 154°
2026-05-04 12:31 25.10010 51.71097 9083 ft 365 kts 154°
2026-05-04 12:31 25.07720 51.72374 9099 ft 368 kts 153°
2026-05-04 12:32 25.05513 51.73828 9097 ft 371 kts 149°
2026-05-04 12:32 25.02312 51.77931 8187 ft 388 kts 80°
2026-05-04 12:32 25.03876 51.80140 8128 ft 366 kts 21°
2026-05-04 12:33 25.06239 51.80458 9051 ft 327 kts 355°
2026-05-04 12:33 25.08487 51.80374 25480 ft 327 kts 355°
2026-05-04 12:33 25.10843 51.80176 24759 ft 355 kts 351°
2026-05-04 12:33 25.13375 51.79941 24383 ft 368 kts 351°
2026-05-04 12:34 25.15912 51.79701 24422 ft 365 kts 351°
2026-05-04 12:34 25.18442 51.79459 24428 ft 364 kts 351°
2026-05-04 12:34 25.20967 51.79215 24427 ft 364 kts 351°
2026-05-04 12:34 25.23496 51.78968 24433 ft 364 kts 351°
2026-05-04 12:35 25.26016 51.78721 24438 ft 363 kts 351°
2026-05-04 12:35 25.28502 51.78474 24440 ft 363 kts 351°
2026-05-04 12:35 25.31014 51.78222 24435 ft 363 kts 351°
2026-05-04 12:35 25.33454 51.77975 24432 ft 363 kts 351°
2026-05-04 12:36 25.35937 51.77722 24431 ft 362 kts 351°
2026-05-04 12:36 25.38451 51.77464 24435 ft 362 kts 351°
2026-05-04 12:36 25.40969 51.77203 24438 ft 362 kts 350°
2026-05-04 12:36 25.43478 51.76941 24436 ft 362 kts 350°
2026-05-04 12:37 25.45987 51.76678 24440 ft 362 kts 350°
2026-05-04 12:37 25.48496 51.76412 24437 ft 362 kts 350°
2026-05-04 12:37 25.51010 51.76145 24437 ft 362 kts 350°
2026-05-04 12:37 25.53514 51.75877 24443 ft 362 kts 350°
2026-05-04 12:38 25.56024 51.75607 24445 ft 362 kts 350°
2026-05-04 12:38 25.58535 51.75336 24440 ft 362 kts 350°
2026-05-04 12:38 25.61039 51.75064 24449 ft 362 kts 350°
2026-05-04 12:38 25.63512 51.74794 24441 ft 362 kts 350°
2026-05-04 12:39 25.66023 51.74519 24449 ft 362 kts 350°
2026-05-04 12:39 25.68530 51.74243 24444 ft 362 kts 350°
2026-05-04 12:39 25.70935 51.73977 24443 ft 362 kts 350°
2026-05-04 12:39 25.73422 51.73702 24440 ft 356 kts 350°
2026-05-04 12:40 25.75876 51.73434 24427 ft 350 kts 350°
2026-05-04 12:40 25.78286 51.73171 24414 ft 346 kts 350°
2026-05-04 12:40 25.80632 51.72691 24271 ft 341 kts 337°
2026-05-04 12:40 25.82747 51.71552 23869 ft 344 kts 323°
2026-05-04 12:41 25.84607 51.69882 23655 ft 342 kts 311°
2026-05-04 12:41 25.86107 51.67880 23732 ft 331 kts 303°
2026-05-04 12:41 25.87455 51.65805 23616 ft 331 kts 304°
2026-05-04 12:41 25.88835 51.63776 23611 ft 327 kts 304°
2026-05-04 12:42 25.90211 51.61774 23608 ft 325 kts 304°
2026-05-04 12:42 25.91579 51.59789 23609 ft 322 kts 304°
2026-05-04 12:42 25.92925 51.57837 23611 ft 320 kts 304°
2026-05-04 12:42 25.94275 51.55876 23607 ft 319 kts 304°
2026-05-04 12:43 25.95640 51.53892 23601 ft 317 kts 304°
2026-05-04 12:43 25.96955 51.51969 23595 ft 316 kts 303°